Terminal Aerodrome Forecast
Issued by NWS Tulsa, OK

Home | Current Version | Previous Version | Text Only | Print | Product List | Glossary On
Versions: 1 2 3 4 5 6 7 8 9 10 11 12
000
FTUS44 KTSA 282300
TAFTUL
TAF
KTUL 282320Z 2900/2924 36009KT P6SM BKN250
     FM290400 06004KT P6SM SCT250
     FM291200 08004KT P6SM FEW110
     FM291800 09006KT P6SM SKC=

USA.gov is the U.S. government's official web portal to all federal, state and local government web resources and services.